Gainesville, GA

12:37 AM EDT on October 18, 2017 (GMT -0400)
Gilmer Memorial

Weather History for KGVL - April, 2012

Change the Weather History Date:

Sunday, April 29, 2012

  Actual Average Record
Temperature  
Mean Temperature 70 °F 64 °F  
Max Temperature 84 °F 74 °F 90 °F (1957)
Min Temperature 57 °F 53 °F 36 °F (1967)
Degree Days  
Heating Degree Days 0 3  
Month to date heating degree days 171  
Since 1 July heating degree days 3023  
Cooling Degree Days 6 2  
Month to date cooling degree days 32  
Year to date cooling degree days 37  
Growing Degree Days 20 (Base 50)    
Moisture  
Dew Point 58 °F    
Average Humidity 70    
Maximum Humidity 97    
Minimum Humidity 33    
Precipitation  
Precipitation 0.00 in 0.12 in 3.67 in (1963)
Month to date precipitation 3.44  
Year to date precipitation 18.76  
Snow  
Snow 0.00 in - - ()
Month to date snowfall  
Since 1 July snowfall  
Snow Depth -    
Sea Level Pressure  
Sea Level Pressure 30.13 in    
Wind  
Wind Speed 6 mph (SSE)    
Max Wind Speed 12 mph    
Max Gust Speed -    
Visibility 8 miles    
Events      
T = Trace of Precipitation, MM = Missing Value Source: NWS Daily Summary

Daily Weather History Graph

Daily Weather History Graph

Search for Another Location

Airport or City:

Trip Planner

Search our weather history database for the weather conditions in past years. The results will help you decide how hot, cold, wet, or windy it might be!

Date:

Astronomy

Apr. 29, 2012 Rise Set
Actual Time 6:47 AM EDT 8:18 PM EDT
Civil Twilight 6:20 AM EDT 8:45 PM EDT
Nautical Twilight 5:48 AM EDT 9:17 PM EDT
Astronomical Twilight 5:15 AM EDT 9:50 PM EDT
Moon 1:28 PM EDT (4/29) 2:17 AM EDT (4/29)
Length of Visible Light 14h 24m
Length of Day
13h 31m
First Quarter, 53% of the Moon is Illuminated
Apr 29
First Quarter
May 5
Full
May 12
Last Quarter
May 20
New
May 28
First Quarter

Hourly Weather History & Observations

Time (EDT) Temp. Heat Index Dew Point Humidity Pressure Visibility Wind Dir Wind Speed Gust Speed Precip Events Conditions
12:49 AM 64.4 °F - 62.6 °F 94% 30.18 in 7.0 mi East 11.5 mph - N/A   Partly Cloudy
12:53 AM 64.9 °F - 63.0 °F 93% 30.14 in 7.0 mi East 8.1 mph - N/A   Partly Cloudy
1:36 AM 64.4 °F - 62.6 °F 94% 30.18 in 7.0 mi ENE 8.1 mph - N/A   Mostly Cloudy
1:53 AM 63.0 °F - 61.0 °F 93% 30.14 in 7.0 mi East 6.9 mph - N/A   Scattered Clouds
2:53 AM 62.1 °F - 60.1 °F 93% 30.14 in 7.0 mi NE 4.6 mph - N/A   Clear
3:53 AM 60.1 °F - 57.9 °F 93% 30.13 in 7.0 mi Calm Calm - N/A   Clear
4:53 AM 59.0 °F - 57.9 °F 96% 30.13 in 6.0 mi Calm Calm - N/A   Clear
5:53 AM 57.9 °F - 57.0 °F 97% 30.14 in 5.0 mi ENE 3.5 mph - N/A   Clear
6:53 AM 57.9 °F - 57.0 °F 97% 30.14 in 3.0 mi East 3.5 mph - N/A   Clear
7:53 AM 61.0 °F - 57.9 °F 90% 30.16 in 5.0 mi Calm Calm - N/A   Clear
8:53 AM 62.1 °F - 57.9 °F 86% 30.16 in 6.0 mi SSE 4.6 mph - N/A   Clear
9:53 AM 66.0 °F - 60.1 °F 81% 30.16 in 8.0 mi Calm Calm - N/A   Clear
10:53 AM 72.0 °F - 62.1 °F 71% 30.16 in 10.0 mi Calm Calm - N/A   Clear
11:53 AM 78.1 °F - 62.1 °F 58% 30.15 in 10.0 mi Variable 4.6 mph - N/A   Clear
12:53 PM 79.0 °F - 59.0 °F 50% 30.14 in 10.0 mi WSW 8.1 mph - N/A   Clear
1:53 PM 81.0 °F 81.1 °F 57.9 °F 45% 30.13 in 10.0 mi West 9.2 mph - N/A   Clear
2:53 PM 82.0 °F 81.7 °F 57.0 °F 42% 30.11 in 10.0 mi WSW 8.1 mph - N/A   Clear
3:53 PM 84.0 °F 83.3 °F 57.0 °F 40% 30.09 in 10.0 mi West 9.2 mph - N/A   Clear
4:53 PM 84.0 °F - 52.0 °F 33% 30.08 in 10.0 mi West 6.9 mph - N/A   Clear
5:53 PM 84.0 °F 82.5 °F 53.1 °F 34% 30.08 in 10.0 mi SW 6.9 mph - N/A   Clear
6:53 PM 82.9 °F 82.0 °F 55.0 °F 38% 30.09 in 10.0 mi SW 3.5 mph - N/A   Clear
7:53 PM 78.1 °F - 59.0 °F 52% 30.09 in 10.0 mi Calm Calm - N/A   Clear
8:53 PM 78.1 °F - 53.1 °F 42% 30.10 in 10.0 mi SSE 3.5 mph - N/A   Clear
10:53 PM 72.0 °F - 59.0 °F 64% 30.13 in 10.0 mi Calm Calm - N/A   Clear
11:53 PM 70.0 °F - 59.0 °F 68% 30.12 in 10.0 mi Calm Calm - N/A   Clear